Date,TemperatureHighF,TemperatureAvgF,TemperatureLowF,DewpointHighF,DewpointAvgF,DewpointLowF,HumidityHigh,HumidityAvg,HumidityLow,PressureMaxIn,PressureMinIn,WindSpeedMaxMPH,WindSpeedAvgMPH,GustSpeedMaxMPH,PrecipitationSumIn
2013-1-1,17,8,0,8,3,-2,92,82,64,30.29,30.18,5,1,9,0.00
2013-1-2,24,17,8,22,12,4,92,82,71,30.19,30.05,7,2,12,0.00
2013-1-3,27,20,9,26,17,7,95,88,80,30.30,30.09,16,4,19,0.00
2013-1-4,32,20,8,24,16,7,96,87,72,30.25,30.14,18,4,21,0.00
2013-1-5,36,26,11,34,24,10,99,93,81,30.20,29.91,13,3,20,0.11
2013-1-6,28,20,10,25,17,9,95,88,77,30.30,29.92,12,3,14,0.00
2013-1-7,38,28,9,29,23,8,99,82,66,30.28,30.03,17,4,25,0.00
2013-1-8,42,34,24,34,30,24,98,85,73,30.07,29.92,10,3,18,0.01
2013-1-9,40,33,22,33,29,22,98,84,66,30.45,29.96,18,4,23,0.00
2013-1-10,42,33,20,39,29,20,100,86,59,30.45,29.77,12,3,20,0.23
2013-1-11,52,44,38,49,43,38,100,98,86,29.77,29.54,12,3,22,0.04
2013-1-12,52,32,21,48,27,17,91,82,74,30.01,29.56,20,7,35,0.00
2013-1-13,21,15,10,16,10,7,84,79,73,30.28,29.91,15,6,20,0.00
2013-1-14,27,15,6,14,10,4,95,81,57,30.47,30.27,9,1,10,0.00
2013-1-15,30,19,9,18,14,8,96,80,58,30.42,30.09,8,2,13,0.00
2013-1-16,37,28,18,36,23,12,98,82,70,30.08,29.82,15,5,20,0.00
2013-1-17,33,24,18,28,16,10,91,74,54,30.38,30.08,11,3,17,0.00
2013-1-18,48,35,19,36,29,17,92,77,63,30.39,29.84,20,6,31,0.00
2013-1-19,49,38,16,38,31,7,87,76,57,30.05,29.68,23,6,36,0.00
2013-1-20,16,12,7,6,4,1,79,71,57,30.34,30.06,15,5,25,0.00
2013-1-21,11,5,-1,6,-4,-9,84,68,55,30.32,30.20,16,6,21,0.00
2013-1-22,10,4,-5,2,-3,-9,86,71,59,30.43,30.34,10,2,16,0.00
2013-1-23,23,14,6,17,8,-1,90,77,66,30.45,30.12,15,4,25,0.00
2013-1-24,20,9,0,11,1,-6,78,70,59,30.67,30.31,8,2,15,0.00
2013-1-25,30,22,13,21,14,8,87,72,61,30.29,29.96,18,5,26,0.00
2013-1-26,27,19,5,17,10,2,92,71,52,30.40,30.24,5,2,11,0.00
2013-1-27,37,30,26,37,26,17,100,86,68,30.30,29.78,14,4,18,0.01
2013-1-28,45,40,36,44,39,36,100,96,85,29.91,29.65,12,3,13,0.40
2013-1-29,59,46,34,57,46,34,100,99,89,29.66,29.44,18,4,22,1.03
2013-1-30,34,27,16,34,26,12,100,97,85,29.69,29.29,12,6,24,0.07
2013-1-31,15,7,-2,13,3,-6,91,85,78,30.26,29.69,14,7,21,0.00
2013-2-1,10,0,-7,8,-4,-11,93,82,70,30.40,30.13,10,3,14,0.00
2013-2-2,17,13,8,16,10,6,96,89,76,30.14,30.02,8,2,16,0.00
2013-2-3,20,17,11,18,14,10,97,87,73,30.08,29.95,15,4,20,0.00
2013-2-4,22,17,6,20,15,4,97,90,78,29.99,29.84,14,3,18,0.00
2013-2-5,32,23,9,29,20,8,96,90,81,30.09,29.81,11,4,16,0.00
2013-2-6,38,26,6,34,23,5,99,88,72,30.18,30.01,9,2,14,0.07
2013-2-7,37,34,29,36,33,28,100,97,89,30.07,29.87,11,2,16,0.36
2013-2-8,30,25,16,27,22,15,97,88,76,30.36,30.07,10,3,16,0.00
2013-2-9,32,27,19,29,25,18,96,92,85,30.37,30.01,10,4,17,0.00
2013-2-10,47,38,29,46,37,28,100,97,82,30.01,29.35,17,6,36,0.35
2013-2-11,36,30,24,33,26,20,93,83,78,30.05,29.44,30,14,37,0.00
2013-2-12,37,28,23,28,24,20,93,83,70,30.11,29.86,13,4,18,0.00
2013-2-13,40,32,20,34,29,20,99,88,76,29.86,29.64,9,2,12,0.00
2013-2-14,40,36,30,35,31,24,90,81,64,30.01,29.59,16,6,25,0.00
2013-2-15,29,22,15,24,13,8,79,68,51,30.25,30.01,12,6,23,0.00
2013-2-16,22,15,9,11,9,7,92,77,61,30.24,30.16,9,3,17,0.00
2013-2-17,34,23,9,25,15,5,89,74,61,30.20,29.85,14,3,22,0.00
2013-2-18,52,35,18,42,30,13,98,82,66,29.84,29.47,14,6,30,0.07
2013-2-19,17,10,5,13,3,-100,89,78,70,30.31,29.68,19,-13,29,0.00
2013-2-20,24,12,4,14,6,-1,92,78,65,30.43,30.31,8,3,14,0.00
2013-2-21,27,19,8,26,17,7,98,90,82,30.41,29.93,15,5,24,0.00
2013-2-22,31,27,24,28,26,22,98,94,88,29.93,29.79,13,5,17,0.00
2013-2-23,28,23,14,22,19,13,93,85,71,29.98,29.89,11,5,15,0.00
2013-2-24,39,22,5,26,16,3,95,80,56,30.13,29.98,4,1,7,0.05
2013-2-25,41,32,19,32,26,18,96,82,67,30.15,29.93,9,2,13,0.01
2013-2-26,36,33,30,31,29,28,99,86,75,29.94,29.60,19,8,32,0.00
2013-2-27,33,31,29,33,31,28,99,98,94,29.81,29.63,12,5,15,0.04
2013-2-28,36,33,30,32,30,27,98,88,81,30.10,29.81,11,4,14,0.04
2013-3-1,30,25,13,27,20,12,95,82,74,30.26,30.10,12,4,18,0.00
2013-3-2,30,17,8,17,11,6,96,79,53,30.28,30.19,7,1,12,0.00
2013-3-3,36,20,3,16,10,1,93,69,35,30.19,30.07,5,1,8,0.00
2013-3-4,33,28,23,27,21,14,89,76,65,30.09,29.94,15,6,21,0.00
2013-3-5,32,29,27,31,28,25,99,97,91,30.14,29.86,9,3,15,0.00
2013-3-6,30,27,18,26,24,17,94,88,81,30.34,30.14,12,4,17,0.00
2013-3-7,36,23,7,28,19,6,97,87,69,30.43,30.34,7,1,9,0.09
2013-3-8,39,30,18,31,26,17,96,84,71,30.43,30.22,12,3,15,0.03
2013-3-9,41,38,34,41,36,30,99,93,84,30.21,29.74,14,4,21,0.71
2013-3-10,44,40,36,44,40,36,100,100,98,29.74,29.51,13,3,24,0.78
2013-3-11,36,33,30,36,32,28,100,96,88,29.82,29.57,13,4,19,0.02
2013-3-12,34,28,24,30,24,20,96,85,74,30.08,29.82,17,7,25,0.00
2013-3-13,34,27,21,21,18,13,89,70,47,30.34,30.08,12,5,19,0.00
2013-3-14,40,28,20,34,25,18,96,88,70,30.34,30.06,7,1,12,0.02
2013-3-15,39,32,25,36,31,25,100,97,89,30.06,29.74,9,2,14,0.02
2013-3-16,34,31,28,34,28,22,98,87,77,30.15,29.75,10,4,14,0.00
2013-3-17,34,28,22,26,22,14,87,76,66,30.23,29.95,12,5,18,0.00
2013-3-18,34,28,18,33,25,13,97,89,78,29.94,29.61,22,7,32,0.00
2013-3-19,28,21,13,18,13,8,84,71,59,30.15,29.83,23,10,28,0.00
2013-3-20,24,16,10,13,8,3,81,70,60,30.18,30.08,18,7,27,0.00
2013-3-21,30,18,6,15,11,3,93,73,54,30.12,30.03,8,1,10,0.00
2013-3-22,36,25,10,22,16,8,95,73,48,30.09,30.02,6,1,10,0.01
2013-3-23,40,30,19,26,22,18,96,74,45,30.12,30.02,9,1,11,0.00
2013-3-24,33,31,28,30,28,24,98,89,72,30.04,29.77,14,5,21,0.00
2013-3-25,36,32,28,28,26,22,93,77,68,30.13,29.83,16,5,19,0.01
2013-3-26,42,34,27,28,25,23,87,70,55,30.27,30.13,10,3,14,0.00
2013-3-27,45,36,27,29,26,22,91,70,45,30.33,30.27,8,1,12,0.00
2013-3-28,50,36,21,32,27,21,97,71,43,30.36,30.26,8,1,10,0.00
2013-3-29,55,43,29,35,31,27,93,66,43,30.30,30.18,5,1,7,0.00
2013-3-30,54,47,37,46,39,29,97,75,64,30.18,29.81,11,4,18,0.00
2013-3-31,47,41,33,44,36,27,100,82,63,29.94,29.76,16,6,27,0.00
2013-4-1,37,31,26,26,21,17,82,66,50,30.22,29.95,14,5,23,0.00
2013-4-2,41,32,19,25,20,16,95,65,39,30.33,30.22,16,3,20,0.00
2013-4-3,47,34,19,25,20,15,94,60,32,30.44,30.27,8,2,12,0.00
2013-4-4,59,44,27,42,30,21,84,61,44,30.26,29.96,15,4,22,0.00
2013-4-5,53,43,32,34,29,25,85,60,36,30.20,30.01,12,3,18,0.00
2013-4-6,66,49,37,53,38,21,94,65,47,30.02,29.53,19,6,25,0.08
2013-4-7,63,50,40,45,41,37,89,72,49,29.92,29.64,12,3,20,0.00
2013-4-8,70,53,43,58,49,39,99,85,65,29.88,29.57,13,4,21,0.83
2013-4-9,52,45,40,50,44,39,100,97,91,29.92,29.77,14,7,26,2.29
2013-4-10,40,38,34,40,38,34,100,99,95,30.05,29.69,19,8,33,1.28
2013-4-11,44,40,38,44,40,37,100,99,96,29.76,29.53,18,6,28,0.41
2013-4-12,42,37,35,39,35,31,100,91,79,29.84,29.54,15,6,22,0.05
2013-4-13,44,37,33,35,31,28,89,78,63,29.96,29.84,20,6,21,0.00
2013-4-14,72,51,35,56,42,31,96,74,48,29.96,29.49,14,7,26,0.24
2013-4-15,59,49,42,53,45,38,100,87,53,29.97,29.57,12,4,22,0.11
2013-4-16,54,45,33,39,36,31,92,71,48,30.23,29.96,8,3,13,0.00
2013-4-17,49,43,40,47,41,36,100,91,68,30.24,29.77,20,6,33,2.07
2013-4-18,61,49,37,61,48,34,100,97,86,29.82,29.31,27,6,30,1.03
2013-4-19,39,36,33,34,31,29,93,83,71,29.96,29.45,27,12,34,0.00
2013-4-20,48,38,28,32,28,24,99,71,41,30.35,29.96,9,2,13,0.00
2013-4-21,57,46,36,44,36,28,78,68,56,30.43,30.20,17,6,23,0.00
2013-4-22,68,57,47,49,43,39,82,60,42,30.21,29.94,13,4,21,0.01
2013-4-23,54,43,38,49,39,32,94,85,74,30.00,29.88,14,5,19,0.12
2013-4-24,53,44,34,39,30,26,86,62,43,30.06,29.99,17,6,21,0.00
2013-4-25,53,43,36,40,32,26,93,68,37,30.26,30.01,17,5,23,0.02
2013-4-26,69,56,40,51,42,27,77,60,47,30.25,30.12,20,6,29,0.00
2013-4-27,67,58,48,52,49,46,95,73,53,30.20,29.95,8,2,14,0.00
2013-4-28,74,58,42,53,48,41,99,73,44,29.94,29.74,8,1,10,0.00
2013-4-29,78,64,53,63,56,49,94,77,55,29.81,29.60,12,3,19,0.08
2013-4-30,88,76,63,63,58,53,91,57,31,29.80,29.60,22,6,29,0.00
2013-5-1,82,68,52,61,56,45,87,65,44,30.13,29.81,15,3,20,0.00
2013-5-2,51,44,38,44,40,36,96,85,75,30.23,30.12,15,7,22,0.08
2013-5-3,49,40,35,49,40,35,100,98,94,30.20,29.92,13,5,15,1.34
2013-5-4,70,60,50,61,55,50,100,83,61,29.99,29.90,18,5,18,0.04
2013-5-5,74,63,48,57,52,47,100,71,44,30.00,29.92,13,2,13,0.00
2013-5-6,76,64,46,54,49,44,96,63,38,30.02,29.93,7,1,11,0.00
2013-5-7,81,65,51,54,50,46,95,63,32,30.01,29.91,5,1,7,0.00
2013-5-8,80,67,50,60,52,46,95,62,35,29.98,29.89,6,1,10,0.00
2013-5-9,67,62,54,65,60,54,100,93,79,29.91,29.76,10,2,16,1.08
2013-5-10,57,50,46,53,48,45,100,93,83,29.96,29.78,11,4,20,0.01
2013-5-11,55,50,42,51,38,28,100,68,41,30.07,29.83,20,6,31,0.02
2013-5-12,56,46,36,37,31,28,91,58,37,30.14,30.06,16,3,20,0.00
2013-5-13,69,53,32,44,37,30,99,60,30,30.15,29.86,9,2,17,0.00
2013-5-14,94,76,58,66,56,44,72,53,28,29.85,29.52,13,4,19,0.00
2013-5-15,81,72,57,62,52,47,88,52,33,29.80,29.57,12,2,13,0.00
2013-5-16,85,70,51,58,53,49,98,60,30,29.88,29.79,8,2,13,0.00
2013-5-17,77,68,61,62,56,50,75,66,58,29.94,29.84,10,4,16,0.00
2013-5-18,84,71,58,68,61,53,86,71,53,29.96,29.82,8,2,13,0.00
2013-5-19,86,74,66,74,66,58,96,77,46,29.85,29.55,19,4,33,0.39
2013-5-20,82,72,62,67,64,62,100,78,56,29.71,29.54,14,4,42,0.41
2013-5-21,75,69,60,64,62,59,95,78,59,29.62,29.54,13,5,21,0.00
2013-5-22,70,62,56,61,58,56,100,90,63,29.70,29.56,10,2,14,0.14
2013-5-23,66,57,46,59,51,42,100,80,45,30.24,29.71,13,3,16,0.06
2013-5-24,68,54,38,49,43,37,99,68,40,30.42,30.24,6,2,10,0.00
2013-5-25,58,51,47,49,47,44,96,85,61,30.33,30.22,8,2,13,0.24
2013-5-26,57,53,46,56,49,40,97,87,66,30.25,30.04,15,4,24,0.40
2013-5-27,63,58,54,62,58,54,100,98,95,30.04,29.79,12,5,15,0.00
2013-5-28,76,66,57,74,65,57,100,98,89,29.79,29.61,9,2,14,1.06
2013-5-29,84,72,60,74,67,60,100,85,69,29.84,29.70,11,2,19,0.00
2013-5-30,82,73,63,73,68,63,98,86,67,29.77,29.59,20,5,24,0.31
2013-5-31,77,70,63,68,66,63,98,87,66,29.73,29.59,15,4,20,0.00
2013-6-1,77,70,62,68,64,57,98,82,50,29.69,29.58,13,4,20,0.00
2013-6-2,64,58,47,62,51,45,99,79,60,29.99,29.69,11,4,18,0.00
2013-6-3,72,59,45,54,50,45,100,74,45,30.08,29.96,8,1,11,0.00
2013-6-4,69,61,53,58,53,44,97,77,42,30.13,30.00,10,2,14,0.10
2013-6-5,69,60,53,62,58,52,99,90,75,30.04,29.88,11,2,15,0.55
2013-6-6,64,59,56,59,57,56,100,94,83,29.92,29.85,7,1,9,0.01
2013-6-7,73,63,56,60,56,54,97,81,56,29.95,29.86,6,1,9,0.00
2013-6-8,76,66,53,58,54,51,99,69,50,29.93,29.87,8,2,12,0.00
2013-6-9,76,67,63,68,60,50,100,79,57,29.90,29.73,11,4,18,0.17
2013-6-10,77,68,59,67,63,59,100,87,68,29.83,29.71,8,2,13,0.00
2013-6-11,85,72,57,73,66,57,100,82,58,29.87,29.74,6,1,11,0.00
2013-6-12,84,75,67,77,71,66,100,86,73,29.83,29.53,12,3,22,0.79
2013-6-13,81,71,60,66,62,59,99,76,48,29.98,29.66,10,2,14,0.00
2013-6-14,79,69,57,65,60,55,95,74,56,30.09,29.90,8,2,11,0.00
2013-6-15,85,73,64,73,67,60,96,82,67,29.97,29.76,13,3,27,0.04
2013-6-16,86,75,64,70,64,55,98,71,36,29.88,29.82,8,2,17,0.00
2013-6-17,88,74,57,67,62,57,99,69,40,29.88,29.79,10,2,13,0.00
2013-6-18,78,68,60,62,58,55,87,71,55,30.02,29.85,10,4,15,0.00
2013-6-19,83,70,56,66,58,49,90,67,49,30.09,29.98,9,1,11,0.00
2013-6-20,89,78,64,67,64,59,88,64,46,30.06,29.93,8,2,15,0.00
2013-6-21,79,74,66,70,68,64,98,82,66,30.06,29.84,13,3,24,0.22
2013-6-22,87,76,65,79,72,65,100,88,68,30.07,29.82,11,4,36,1.08
2013-6-23,86,77,66,75,71,65,98,82,61,29.97,29.77,10,3,14,0.01
2013-6-24,75,71,67,70,68,66,100,93,83,29.98,29.79,8,2,16,0.52
2013-6-25,84,74,66,80,72,66,100,94,80,29.87,29.71,10,2,20,2.18
2013-6-26,86,77,69,76,73,69,100,89,69,29.70,29.62,10,2,20,0.45
2013-6-27,88,78,68,75,70,63,100,79,47,29.77,29.68,17,3,24,0.00
2013-6-28,80,71,62,70,65,61,96,84,58,29.72,29.60,25,3,25,0.10
2013-6-29,75,68,64,67,65,61,99,90,71,29.79,29.59,18,3,18,0.08
2013-6-30,79,70,62,63,59,54,94,71,51,29.99,29.79,11,3,16,0.00
2013-7-1,80,70,56,60,57,54,96,68,46,30.06,29.99,18,3,19,0.00
2013-7-2,79,64,54,62,58,53,100,82,51,30.07,29.99,8,1,14,0.00
2013-7-3,75,65,50,65,59,50,100,82,60,30.04,29.97,4,1,8,0.00
2013-7-4,85,72,57,69,64,57,100,77,51,30.02,29.93,9,1,11,0.00
2013-7-5,86,77,64,70,67,63,96,73,54,29.99,29.91,7,2,19,0.00
2013-7-6,87,80,68,71,69,64,90,70,54,29.96,29.86,10,2,12,0.00
2013-7-7,90,80,71,76,72,68,92,77,59,29.90,29.83,11,2,11,0.00
2013-7-8,90,79,72,80,74,71,99,86,70,29.91,29.84,11,3,13,0.54
2013-7-9,87,80,74,80,77,73,100,92,81,29.91,29.78,10,2,19,0.22
2013-7-10,80,76,64,78,68,61,100,78,55,29.97,29.79,16,2,17,0.00
2013-7-11,83,71,58,67,63,57,100,78,52,30.07,29.97,9,1,9,0.00
2013-7-12,84,67,57,67,61,57,100,85,49,30.10,30.01,6,1,9,0.00
2013-7-13,84,75,61,69,66,60,98,74,56,30.09,30.01,9,1,9,0.00
2013-7-14,87,77,64,74,70,63,97,79,57,30.14,30.07,7,2,11,0.00
2013-7-15,92,82,72,79,75,70,96,81,61,30.19,30.11,7,1,7,0.00
2013-7-16,92,84,74,80,78,74,100,83,65,30.21,30.15,8,1,11,0.00
2013-7-17,94,84,74,80,77,73,100,81,59,30.23,30.09,5,1,8,0.00
2013-7-18,92,84,73,79,76,73,100,79,60,30.10,29.85,10,2,15,0.00
2013-7-19,90,84,75,79,75,68,87,75,65,29.84,29.69,19,6,20,0.00
2013-7-20,86,76,63,72,69,63,100,78,56,29.87,29.78,12,1,12,0.02
2013-7-21,85,74,66,77,69,65,100,87,67,29.89,29.78,17,3,19,0.05
2013-7-22,87,75,63,77,70,63,100,85,64,29.83,29.62,13,3,31,0.10
2013-7-23,77,71,62,66,61,57,100,73,54,29.93,29.69,14,2,15,0.01
2013-7-24,77,68,55,62,58,55,99,72,49,30.03,29.93,6,1,7,0.00
2013-7-25,82,72,56,69,64,56,100,78,61,30.03,29.95,12,3,16,0.20
2013-7-26,78,70,62,72,66,58,100,85,57,29.96,29.81,19,4,21,0.14
2013-7-27,63,59,54,58,52,49,96,77,64,29.93,29.88,11,4,16,0.00
2013-7-28,70,61,52,57,54,50,99,79,61,30.02,29.85,11,3,14,0.00
2013-7-29,79,67,49,64,59,49,100,76,53,30.11,30.02,8,1,9,0.01
2013-7-30,72,65,58,67,63,57,100,94,83,30.10,30.01,13,2,13,0.04
2013-7-31,80,70,62,71,66,62,100,90,66,30.03,29.92,12,1,13,0.00
2013-8-1,80,67,58,67,61,56,100,82,48,29.99,29.85,14,2,15,0.01
2013-8-2,83,73,66,70,64,59,95,75,56,29.92,29.79,8,1,11,0.00
2013-8-3,80,69,56,63,59,54,100,73,46,30.10,29.92,11,1,11,0.00
2013-8-4,80,67,52,64,59,52,100,77,46,30.17,30.04,6,0,10,0.00
2013-8-5,72,67,61,69,64,59,100,92,83,30.04,29.80,17,1,18,0.46
2013-8-6,86,76,69,76,73,68,100,91,72,29.84,29.73,9,1,9,0.00
2013-8-7,82,74,63,75,69,63,98,83,61,29.92,29.71,15,2,15,0.00
2013-8-8,82,70,60,68,64,59,100,83,54,30.00,29.91,11,1,11,0.00
2013-8-9,80,70,61,69,65,61,100,84,61,30.03,29.93,13,1,13,0.00
2013-8-10,78,68,57,64,60,56,100,78,51,30.12,30.03,12,1,13,0.00
2013-8-11,80,69,57,72,65,56,100,88,70,30.09,29.97,13,1,13,0.00
2013-8-12,83,73,63,72,67,60,100,82,58,29.98,29.86,14,2,14,0.00
2013-8-13,73,64,52,60,55,50,98,75,49,30.12,29.93,13,2,13,0.00
2013-8-14,76,62,47,61,54,47,100,78,46,30.19,30.08,9,0,9,0.00
2013-8-15,78,64,54,64,58,53,100,82,48,30.13,30.05,7,0,7,0.00
2013-8-16,82,66,51,64,58,51,100,80,45,30.16,30.10,7,0,8,0.01
2013-8-17,83,68,54,63,59,53,100,75,43,30.19,30.10,12,1,12,0.00
2013-8-18,83,69,55,65,61,55,100,79,47,30.16,30.04,6,1,8,0.00
2013-8-19,84,70,57,71,64,57,100,84,55,30.06,29.97,12,1,14,0.00
2013-8-20,87,79,64,72,69,64,98,73,56,30.02,29.92,14,2,14,0.00
2013-8-21,89,80,73,75,72,68,96,77,61,29.97,29.87,17,3,17,0.28
2013-8-22,78,71,65,73,70,65,100,96,81,30.10,29.91,26,2,30,0.80
2013-8-23,84,72,61,69,64,58,100,78,51,30.13,30.05,11,1,13,0.01
2013-8-24,87,75,64,74,66,55,85,74,64,30.18,30.07,10,2,11,0.00
2013-8-25,90,81,73,76,71,69,88,74,54,30.15,30.02,16,3,16,0.00
2013-8-26,92,78,70,79,70,-100,91,78,63,30.05,29.89,11,-10,12,0.00
2013-8-27,95,84,76,79,76,72,95,77,58,29.90,29.75,18,3,18,0.00
2013-8-28,86,79,73,79,75,72,99,89,78,29.96,29.78,11,1,11,0.00
2013-8-29,89,78,68,77,73,68,100,85,62,30.01,29.89,9,1,9,0.00
2013-8-30,96,82,74,82,76,72,99,83,59,29.89,29.68,15,2,15,0.00
2013-8-31,84,75,67,75,71,67,100,88,72,29.81,29.71,16,2,17,0.07
2013-9-1,86,75,67,76,68,63,100,81,55,29.81,29.68,18,3,18,0.00
2013-9-2,75,66,56,63,60,54,100,83,59,29.98,29.81,14,2,15,0.00
2013-9-3,78,62,48,62,56,48,100,82,55,30.07,29.97,7,1,8,0.00
2013-9-4,84,68,51,72,62,51,100,84,57,30.09,30.01,10,1,11,0.01
2013-9-5,80,70,64,68,65,59,100,88,66,30.18,30.06,12,2,12,0.00
2013-9-6,88,74,61,70,63,52,83,68,50,30.15,29.92,13,2,13,0.00
2013-9-7,91,78,68,76,70,65,95,76,56,29.92,29.80,11,2,11,0.01
2013-9-8,78,73,68,72,70,66,96,90,80,29.97,29.85,16,5,18,0.00
2013-9-9,98,85,68,79,73,68,100,69,48,29.87,29.71,13,3,13,0.00
2013-9-10,97,85,75,73,68,65,93,59,37,29.90,29.78,19,4,21,0.03
2013-9-11,84,74,66,72,69,65,100,86,61,30.00,29.88,11,1,12,0.01
2013-9-12,76,67,58,66,58,51,100,76,46,30.09,29.95,19,3,20,0.01
2013-9-13,69,57,48,52,47,42,93,71,39,30.20,30.08,13,1,13,0.00
2013-9-14,74,60,44,52,49,-90,100,69,43,30.16,29.94,11,2,11,0.00
2013-9-15,64,58,53,60,55,49,100,93,58,30.18,29.90,11,1,11,0.53
2013-9-16,68,57,51,56,51,47,100,80,48,30.36,30.18,13,2,13,0.01
2013-9-17,69,59,46,60,54,45,100,85,70,30.30,30.02,11,2,14,0.00
2013-9-18,80,70,64,74,66,58,99,85,78,30.03,29.80,12,2,15,0.25
2013-9-19,92,75,67,76,71,67,100,88,57,29.83,29.63,32,3,32,1.17
2013-9-20,67,64,56,67,60,53,100,89,71,29.84,29.71,17,4,17,0.02
2013-9-21,66,55,48,54,52,48,100,88,63,29.93,29.83,13,2,14,0.01
2013-9-22,71,57,44,55,51,44,100,83,54,30.03,29.93,7,1,11,0.01
2013-9-23,73,60,48,56,52,48,98,78,51,30.05,29.94,10,2,14,0.00
2013-9-24,74,61,50,58,54,48,97,78,51,29.97,29.87,11,3,13,0.00
2013-9-25,75,62,51,58,54,50,99,79,50,29.94,29.86,11,2,14,0.00
2013-9-26,81,70,52,65,59,51,100,70,54,30.00,29.91,11,2,11,0.00
2013-9-27,83,70,59,63,56,53,85,63,40,30.06,29.93,19,2,19,0.00
2013-9-28,80,67,54,68,60,53,100,81,62,29.95,29.79,20,4,20,0.35
2013-9-29,74,57,47,59,51,47,100,83,42,30.05,29.94,8,0,8,0.02
2013-9-30,76,63,48,58,52,47,98,71,43,29.95,29.76,14,2,14,0.00
2013-10-1,82,69,58,66,62,58,100,81,55,29.92,29.80,19,4,19,0.00
2013-10-2,81,66,48,61,54,46,100,71,36,30.05,29.88,14,2,14,0.01
2013-10-3,76,69,64,73,67,57,100,94,72,29.88,29.74,12,2,13,0.81
2013-10-4,72,68,66,70,68,66,100,98,93,29.95,29.80,13,2,13,0.81
2013-10-5,74,68,52,72,66,45,100,91,73,29.82,29.69,14,2,14,0.05
2013-10-6,55,47,42,46,44,42,100,90,63,29.77,29.67,13,2,13,0.09
2013-10-7,71,55,42,54,49,42,100,83,46,30.05,29.76,16,2,17,0.00
2013-10-8,77,62,46,56,50,45,100,70,38,30.11,30.02,15,2,15,0.00
2013-10-9,74,62,50,56,51,47,91,70,40,30.15,30.05,12,1,12,0.00
2013-10-10,76,60,46,60,53,45,98,78,53,30.12,29.96,10,1,10,0.00
2013-10-11,77,67,57,63,58,55,94,76,55,29.97,29.81,23,3,25,0.00
2013-10-12,70,63,43,61,53,42,97,72,45,30.15,29.81,14,4,21,0.00
2013-10-13,63,49,37,47,41,37,100,79,43,30.39,30.15,6,1,11,0.00
2013-10-14,64,51,36,49,43,36,100,77,54,30.39,30.04,9,3,19,0.01
2013-10-15,62,55,51,61,51,46,100,86,68,30.04,29.73,11,5,21,0.21
2013-10-16,52,50,48,49,48,47,98,92,85,29.93,29.79,11,3,18,0.00
2013-10-17,58,48,39,48,46,39,100,94,55,29.91,29.79,10,1,15,0.10
2013-10-18,50,44,38,45,41,38,100,88,65,29.94,29.80,11,2,16,0.00
2013-10-19,52,44,34,43,40,33,100,87,59,29.91,29.75,15,3,23,0.07
2013-10-20,56,44,32,50,41,32,100,92,77,29.83,29.69,14,2,14,0.02
2013-10-21,49,40,31,45,32,27,92,75,52,29.97,29.79,18,4,22,0.01
2013-10-22,43,35,26,35,31,25,100,87,62,29.99,29.91,11,0,12,0.00
2013-10-23,42,36,28,35,30,27,99,80,56,30.04,29.97,14,2,17,0.00
2013-10-24,44,36,27,30,28,25,96,74,54,30.33,30.04,14,2,15,0.00
2013-10-25,54,40,24,37,30,24,99,72,43,30.38,29.98,21,4,24,0.00
2013-10-26,52,45,33,38,34,30,96,66,48,30.08,29.83,17,5,24,0.00
2013-10-27,57,42,26,37,32,26,99,73,43,30.07,29.89,16,2,17,0.00
2013-10-28,48,42,35,40,36,32,89,79,68,30.35,30.00,20,5,21,0.00
2013-10-29,59,48,38,45,40,33,89,73,51,30.35,30.06,16,3,16,0.00
2013-10-30,59,54,50,59,52,44,100,96,77,30.07,29.67,15,2,15,0.15
2013-10-31,63,55,43,63,54,41,100,98,92,29.67,29.30,19,4,19,0.59
2013-11-1,50,45,39,46,42,38,98,89,80,29.75,29.39,15,4,17,0.00
2013-11-2,49,39,29,40,36,29,100,87,65,30.14,29.75,13,2,14,0.00
2013-11-3,53,39,26,41,34,26,100,84,53,30.26,30.12,15,2,16,0.01
2013-11-4,54,50,45,48,43,38,88,77,68,30.13,29.99,19,4,22,0.00
2013-11-5,55,51,48,55,50,46,100,95,87,30.19,29.81,11,2,21,0.31
2013-11-6,57,44,32,57,40,28,100,86,59,30.20,29.68,21,5,21,0.22
2013-11-7,42,34,25,35,31,25,100,89,72,30.26,30.20,11,2,13,0.00
2013-11-8,50,39,24,38,32,24,100,79,57,30.29,29.78,21,3,22,0.00
2013-11-9,54,48,39,44,40,30,81,71,64,30.14,29.77,31,8,31,0.00
2013-11-10,49,41,32,35,33,29,89,74,57,30.35,30.14,16,3,18,0.00
2013-11-11,46,34,21,38,30,16,99,84,70,30.60,30.06,21,5,23,0.03
2013-11-12,30,22,16,21,16,13,89,79,61,30.78,30.60,12,2,12,0.00
2013-11-13,44,29,17,23,19,14,90,68,42,30.61,30.10,21,4,21,0.01
2013-11-14,50,42,34,34,30,22,83,64,52,30.09,29.88,16,3,17,0.00
2013-11-15,56,45,33,40,35,30,91,70,52,29.92,29.81,13,2,17,0.00
2013-11-16,60,51,41,58,50,38,99,94,79,29.82,29.40,22,5,22,0.15
2013-11-17,60,51,42,58,49,37,100,93,82,29.77,29.16,28,6,29,1.12
2013-11-18,42,37,28,38,31,26,92,79,59,30.26,29.77,23,7,24,0.00
2013-11-19,42,34,21,32,29,21,99,82,63,30.34,30.19,12,2,13,0.00
2013-11-20,40,37,35,38,34,31,99,88,76,30.20,30.02,19,3,20,0.16
2013-11-21,42,40,38,40,39,38,100,96,94,30.26,30.06,11,2,11,0.00
2013-11-22,39,31,22,38,27,17,99,86,70,30.51,30.26,18,4,18,0.03
2013-11-23,23,18,10,19,11,7,87,73,57,30.76,30.47,21,5,25,0.00
2013-11-24,29,18,7,13,9,5,95,70,42,30.74,30.31,16,3,16,0.00
2013-11-25,32,28,22,29,24,13,98,86,66,30.31,30.06,17,4,18,0.00
2013-11-26,32,26,13,29,19,6,93,76,54,30.26,30.04,20,4,21,0.00
2013-11-27,26,17,7,16,10,3,84,74,60,30.34,30.20,14,2,15,0.00
2013-11-28,30,22,11,21,16,9,95,77,68,30.51,30.13,14,2,14,0.00
2013-11-29,34,23,8,25,18,6,96,79,64,30.62,30.32,16,2,16,0.00
2013-11-30,48,35,26,37,30,25,99,81,63,30.32,30.02,9,2,14,0.00
2013-12-1,42,33,24,33,30,24,99,88,70,30.14,29.95,10,1,10,0.00
2013-12-2,40,35,28,36,32,27,98,91,80,29.95,29.67,16,2,18,0.07
2013-12-3,43,40,36,43,40,36,100,100,98,29.68,29.60,14,2,14,0.02
2013-12-4,51,42,29,50,42,28,100,99,94,29.71,29.43,26,5,26,0.04
2013-12-5,29,19,14,27,14,10,94,81,73,30.32,29.71,28,8,32,0.00
2013-12-6,17,11,8,10,6,3,86,79,66,30.62,30.30,12,3,15,0.00
2013-12-7,16,8,1,6,2,-2,87,77,53,30.76,30.61,12,2,12,0.00
2013-12-8,20,17,11,19,13,4,97,84,69,30.64,29.98,15,3,15,0.00
2013-12-9,20,8,-10,18,5,-13,96,86,70,30.26,29.97,23,4,24,0.00
2013-12-10,18,13,-10,13,8,-13,93,80,67,30.30,29.98,23,5,27,0.00
2013-12-11,16,7,-9,15,2,-12,95,81,60,30.60,30.27,17,3,19,0.00
2013-12-12,19,8,-9,13,4,-12,94,81,72,30.56,30.22,13,2,13,0.00
2013-12-13,27,20,8,23,16,6,95,87,76,30.22,30.08,18,4,18,0.00
2013-12-14,26,23,18,22,20,14,94,90,84,30.12,30.00,22,4,22,0.00
2013-12-15,17,11,6,13,5,2,89,76,70,30.15,30.00,13,2,18,0.00
2013-12-16,18,13,8,17,9,2,96,84,71,30.16,30.01,10,1,10,0.00
2013-12-17,36,26,17,30,21,16,97,82,57,30.14,29.98,27,6,27,0.01
2013-12-18,39,27,9,31,20,7,96,77,48,30.15,29.78,18,2,18,0.00
2013-12-19,35,30,23,32,28,22,100,91,77,29.91,29.79,13,3,18,0.00
2013-12-20,33,25,24,32,24,22,99,97,94,29.86,29.78,15,3,15,0.00
2013-12-21,28,26,24,28,26,24,99,98,97,29.87,29.68,14,2,15,0.00
2013-12-22,28,25,18,28,24,16,99,97,93,30.18,29.69,11,3,11,0.00
2013-12-23,18,2,-10,17,-2,-13,95,86,80,30.53,30.18,15,4,16,0.00
2013-12-24,13,-2,-17,12,-5,-21,95,86,76,30.61,30.30,9,1,9,0.00
2013-12-25,24,20,13,23,18,12,97,93,85,30.31,30.13,14,3,16,0.00
2013-12-26,32,24,13,27,21,11,97,90,81,30.23,30.13,11,1,12,0.00
2013-12-27,39,27,10,33,24,8,98,88,77,30.26,30.06,18,2,23,0.07
2013-12-28,47,37,24,37,32,23,100,83,65,30.08,29.75,16,2,16,0.10
2013-12-29,39,20,-3,33,15,-10,98,83,74,30.29,29.73,27,6,29,0.00
2013-12-30,6,-1,-11,2,-7,-17,91,78,56,30.36,30.24,7,1,7,0.00
2013-12-31,9,2,-9,6,-1,-12,91,89,83,30.38,30.25,14,1,14,0.00
2014-1-1,12,8,3,9,4,-1,89,85,77,30.36,30.28,16,5,16,0.00
2014-1-2,13,6,-11,7,2,-14,90,80,73,30.48,30.28,13,2,13,0.00